Vorticity
6 5 5 4 4 4 4 5 7 7 6 3 1 1 4 5 5 5 4 4 5 6 5 4 3 2 1 1 2 3 5 5 4 2 2 2 2 3 3 3 2 2 2 2 2 2 2 1 1 -0 -1 -1 1 3 5 8 11 12 11 8 7 8 13 18 13 5 2 4 5 5 5 6 7 6 5 4 3 3 3 4 4 4 4 3 3 3 3 3 3 4 4 4 4 4 4 4 4 4 4 4 4 4 4
6 5 4 4 4 4 4 5 6 7 7 4 2 2 4 5 6 5 4 4 5 6 6 5 3 2 1 0 1 2 4 5 4 3 3 3 3 3 3 2 2 2 3 2 2 2 1 1 1 0 0 1 1 3 4 8 11 13 12 9 11 13 12 11 5 -0 1 4 5 5 5 6 7 7 5 4 3 3 3 4 4 4 4 3 3 3 3 3 4 4 4 4 4 4 4 4 4 4 4 4 4 4 4
8 7 5 4 4 4 4 5 6 7 6 5 4 3 3 4 5 5 5 4 5 6 6 5 4 3 2 0 -0 0 3 5 5 4 3 4 3 3 2 2 2 2 3 2 2 1 1 1 1 1 1 1 1 2 3 8 11 13 12 9 10 11 8 -0 -1 2 4 5 6 5 6 7 7 7 5 4 4 3 4 5 4 4 4 4 3 3 3 4 4 4 4 4 4 4 4 4 4 4 4 4 4 4 4
9 9 6 4 4 4 5 5 5 6 6 5 5 5 3 3 4 5 5 5 5 5 6 5 5 4 2 1 -0 0 2 5 5 4 4 3 3 2 2 2 2 3 3 2 1 1 1 1 0 0 -0 -0 1 2 5 8 11 13 12 9 8 8 5 0 3 6 7 7 6 6 6 8 8 7 6 5 4 4 4 5 4 4 4 4 3 3 3 4 4 4 4 4 4 4 4 4 4 4 4 4 4 4 4
8 9 8 6 4 4 5 5 5 5 5 4 5 6 5 4 4 4 5 5 5 5 6 6 5 4 4 2 1 0 2 5 6 5 3 3 2 1 1 2 3 3 3 2 1 1 1 1 -0 -1 -1 -1 1 3 7 10 12 12 12 9 8 7 6 5 6 7 8 7 6 6 7 8 8 7 6 5 5 4 5 4 4 4 4 3 3 3 3 4 4 4 4 4 4 4 4 4 4 4 4 4 4 4 4
6 9 10 8 6 5 5 5 5 5 4 4 5 6 8 5 4 4 5 5 5 5 5 6 5 5 4 3 2 1 2 5 6 5 3 2 1 1 2 3 4 3 2 2 1 1 1 1 0 -0 -1 0 2 4 8 10 11 12 12 9 8 7 6 6 6 7 6 7 7 7 7 8 9 8 7 6 5 5 4 4 4 4 4 3 3 3 3 4 4 4 4 4 4 4 4 4 4 4 4 4 4 4 4
3 7 11 9 7 6 6 5 5 4 4 4 4 6 9 7 5 4 5 5 5 5 5 6 5 5 5 4 3 2 2 6 6 5 3 3 2 2 3 4 3 3 2 1 1 1 1 0 -0 -0 1 2 4 6 9 10 11 12 12 9 8 7 6 7 7 6 5 6 6 7 7 8 9 8 8 7 6 5 4 3 3 3 3 3 3 3 3 4 4 4 4 4 4 4 4 4 4 4 4 4 4 4 4
1 5 12 11 10 8 7 5 5 4 4 4 4 5 8 7 5 4 5 6 6 6 5 5 5 6 6 5 4 2 2 6 6 5 4 3 3 3 4 4 3 2 1 1 1 1 1 0 -1 -0 1 4 6 8 10 11 12 12 12 9 7 6 7 7 7 5 5 5 6 7 8 8 8 8 8 7 6 4 3 3 3 3 3 3 3 3 3 3 3 4 4 4 4 4 4 4 4 4 4 4 4 4 4
0 4 12 14 12 9 7 5 5 4 4 5 5 6 7 7 6 5 4 5 5 6 5 5 5 6 6 5 4 3 3 6 7 5 4 4 3 3 3 3 3 2 1 1 1 1 1 -0 -0 1 2 6 8 10 11 12 13 12 12 9 7 6 7 7 6 5 5 6 7 8 9 8 7 7 7 6 5 4 3 3 3 3 3 3 3 3 3 3 3 3 3 4 4 4 4 4 4 4 4 4 4 4 4
-0 2 12 17 14 9 7 5 4 4 4 5 6 6 7 8 7 5 5 5 5 5 5 5 5 5 6 5 4 3 3 7 7 6 4 4 3 2 3 3 2 2 1 1 1 0 0 -0 1 2 3 7 10 11 13 13 12 12 12 9 7 6 7 7 7 6 6 7 8 8 8 7 7 7 7 6 5 4 3 3 3 3 3 2 2 2 2 3 3 3 3 3 4 4 4 4 4 4 4 4 4 4 4
-1 -1 7 18 17 10 7 5 4 4 5 6 6 6 7 9 9 7 5 5 5 5 6 6 6 6 6 5 4 3 3 8 8 6 4 3 2 1 2 2 2 1 1 0 0 -0 -0 0 2 3 5 9 11 12 13 13 12 12 11 9 7 6 7 7 7 7 7 8 9 9 8 7 6 6 6 6 5 4 4 3 3 3 3 2 2 2 2 2 2 3 3 3 3 4 4 4 4 4 4 4 4 4 3
-0 -3 -1 17 20 15 8 5 3 4 5 6 6 6 6 9 10 9 7 6 6 6 6 6 6 6 6 5 3 3 4 8 9 7 4 2 1 1 2 2 2 1 0 -0 -0 -0 -1 1 3 5 8 11 12 13 13 12 12 11 10 9 8 7 8 8 8 9 10 10 10 9 8 7 6 6 6 6 5 5 4 3 3 3 3 2 2 2 2 2 2 2 3 3 3 3 4 4 4 4 4 4 4 3 3
1 -4 -9 11 22 22 11 6 3 3 5 7 8 8 7 8 9 9 8 7 7 7 6 6 6 6 5 4 3 3 4 8 9 8 4 2 0 0 1 1 1 -0 -1 -1 -1 -0 -0 2 5 8 11 12 12 13 12 12 12 11 10 9 8 8 8 10 11 11 10 9 9 9 7 7 6 6 6 6 6 5 4 4 3 3 3 2 2 2 2 2 2 2 3 3 3 3 3 4 4 4 4 4 4 3 3
3 -2 -12 -4 18 32 18 7 3 3 5 6 8 9 9 7 7 7 7 7 7 7 7 6 6 6 5 4 3 3 5 8 9 8 5 2 0 0 1 1 -0 -1 -1 -1 -1 -0 1 4 7 10 12 12 12 12 12 11 11 10 9 9 8 8 8 10 11 10 7 5 7 9 7 7 7 7 7 6 6 6 5 4 3 3 3 3 2 2 2 2 2 2 2 2 3 3 3 4 4 4 4 4 4 3 3
5 1 -9 -15 10 35 28 8 2 4 6 5 6 8 10 6 5 4 6 6 6 6 7 6 6 5 5 4 3 3 5 8 9 8 5 2 1 1 1 -0 -1 -2 -2 -2 -1 -0 2 7 10 12 12 12 11 11 11 10 10 9 9 8 8 8 8 9 9 8 3 3 6 9 8 7 7 7 7 7 6 5 5 4 3 3 3 3 2 2 2 2 3 3 3 3 3 3 3 4 4 4 4 4 4 3 3
7 4 -3 -17 4 29 30 7 2 5 8 6 6 6 9 6 4 3 5 6 6 5 6 6 5 5 5 4 3 3 5 8 8 7 5 2 1 1 1 -1 -2 -3 -3 -2 -2 1 5 10 12 13 12 11 11 10 10 9 9 9 9 8 7 6 6 8 9 7 2 3 6 9 9 7 6 7 7 7 6 6 4 4 3 3 3 3 2 2 3 3 3 3 3 3 3 3 3 4 4 4 4 4 4 4 4
8 6 1 -13 -0 19 25 6 3 6 9 8 7 6 6 5 3 3 4 6 6 5 4 5 5 5 5 4 3 3 6 7 8 7 4 2 2 1 -0 -2 -2 -3 -3 -3 -1 3 8 13 14 13 12 10 10 9 9 8 8 9 9 8 7 6 6 8 8 6 3 4 6 9 9 7 7 7 8 8 7 6 4 4 4 3 3 3 3 3 3 3 3 3 3 3 3 3 3 4 4 4 4 4 4 4 4
9 7 4 -10 -3 12 22 9 5 7 8 9 8 7 5 4 4 3 2 4 5 5 4 4 4 4 4 3 2 3 6 7 7 6 5 3 2 1 -1 -2 -3 -3 -3 -2 1 6 12 14 14 12 10 9 9 8 8 8 8 9 9 8 7 7 10 8 6 3 3 5 7 9 9 7 7 7 8 8 7 6 5 4 4 4 3 3 3 3 3 3 3 3 3 3 3 3 3 4 4 4 4 4 4 4 4
11 8 6 -6 -4 8 24 14 9 8 8 9 8 7 6 5 4 3 1 2 3 4 4 4 4 4 3 2 2 3 6 7 7 7 5 3 2 0 -1 -2 -3 -3 -3 -1 4 9 15 15 13 10 9 8 8 7 7 7 8 8 8 8 7 7 10 5 4 4 5 6 8 9 8 8 8 8 8 8 7 6 5 5 4 4 4 3 3 3 3 3 3 3 3 3 3 3 4 4 4 4 4 4 4 4 4
12 9 7 -4 -5 4 27 18 12 10 9 8 8 8 9 8 6 4 1 1 3 4 5 4 4 4 3 2 2 3 6 7 7 7 5 3 1 -0 -1 -2 -2 -3 -2 2 7 12 15 13 11 9 8 8 7 7 6 7 8 8 8 7 6 6 6 3 4 6 7 7 8 8 8 7 8 8 8 8 7 5 5 5 5 4 4 4 4 3 3 3 3 3 3 3 3 4 4 4 4 4 4 4 4 4 4
13 10 7 -1 -5 2 28 20 14 11 9 6 8 11 16 14 10 4 1 1 2 4 5 4 4 4 4 3 3 3 6 7 7 7 5 2 0 -0 -1 -1 -2 -2 -0 4 9 13 14 11 9 8 7 7 7 7 6 6 7 8 8 7 6 5 5 5 6 7 7 6 6 7 7 7 7 8 9 8 6 5 5 5 5 5 5 4 4 3 3 3 3 3 4 4 4 4 4 4 4 4 4 4 4 4 4
13 11 8 0 -6 -0 27 22 15 9 5 5 10 17 24 19 12 5 1 0 2 4 5 4 4 4 4 3 3 4 6 7 7 6 3 1 -0 -1 -1 -1 -2 -1 2 7 11 13 12 9 8 7 7 8 7 6 5 6 7 8 8 7 6 5 5 6 6 7 7 6 6 6 6 7 7 8 8 7 6 5 5 5 5 5 5 4 4 3 3 3 3 4 4 4 4 4 4 4 4 4 4 4 4 4 4
13 12 9 2 -6 -3 21 22 15 7 3 6 13 20 25 16 8 4 1 1 2 3 4 4 4 4 4 3 3 4 5 7 6 5 1 0 -0 -1 -1 -1 -1 1 4 9 12 12 10 8 7 7 7 8 7 6 5 6 7 8 8 7 6 6 6 6 6 6 7 6 6 6 6 6 7 8 8 7 6 5 5 5 5 5 5 4 4 3 3 3 4 4 4 4 4 4 4 4 4 4 4 4 4 4 4
13 13 11 4 -4 -5 12 23 17 7 4 9 16 20 15 6 1 0 2 1 1 2 4 4 4 3 3 3 3 4 6 7 6 4 0 -0 -0 -0 -0 -0 0 2 6 10 12 11 8 7 7 7 7 8 7 6 5 6 7 8 8 7 6 6 6 6 6 6 6 6 6 6 5 6 7 7 8 7 6 5 5 5 5 5 5 4 4 3 4 4 4 4 4 4 4 4 4 4 4 4 4 4 4 4 5
12 13 12 6 -2 -6 2 23 20 10 6 12 19 19 8 0 -2 -0 3 1 1 2 4 4 4 4 3 3 4 4 6 6 5 3 0 -1 -1 -0 0 0 2 4 8 11 11 10 7 7 7 7 7 8 7 6 4 5 7 8 8 7 7 6 6 6 6 6 6 7 6 6 5 5 6 7 8 7 6 5 5 5 5 5 5 4 4 4 5 5 5 4 4 4 4 4 4 4 4 4 4 4 4 5 5
10 13 13 7 0 -5 -6 22 24 15 9 18 21 17 7 1 0 2 4 1 0 1 4 5 5 4 4 4 4 5 5 5 4 2 0 -0 -0 -0 0 1 3 6 10 11 10 8 7 7 7 7 7 7 7 6 4 5 6 7 8 8 7 7 6 6 6 6 7 7 6 6 4 4 6 7 8 8 6 5 5 5 5 5 5 4 5 5 5 5 5 5 4 4 5 5 5 5 4 4 4 4 5 5 5
8 13 14 9 3 -4 -10 18 26 22 13 22 17 8 6 1 1 3 4 0 -0 1 4 5 5 4 4 4 4 5 5 4 3 1 0 0 0 0 0 2 5 8 10 10 9 8 7 7 8 8 7 7 6 5 4 5 6 7 8 8 7 7 6 6 6 6 7 7 6 6 5 4 5 7 8 8 6 5 5 5 5 5 5 5 5 6 6 5 5 5 5 5 5 5 5 5 5 5 4 5 5 5 5
6 11 14 10 5 -2 -10 11 26 29 15 14 8 3 6 1 2 5 2 -0 -1 -0 4 5 5 5 4 4 5 5 5 4 3 2 1 1 1 1 1 3 6 9 10 9 8 7 7 7 8 7 7 7 6 5 5 5 6 7 8 8 7 7 6 6 6 7 7 6 6 6 5 4 5 6 8 7 6 5 5 5 6 6 6 6 6 6 6 6 5 5 5 5 5 5 5 5 5 5 5 5 5 5 6
4 9 13 11 7 1 -9 8 25 31 15 6 1 1 4 -0 2 4 1 -2 -3 -2 4 6 6 5 5 5 5 5 4 3 3 3 3 2 1 1 2 5 8 10 10 8 7 7 7 8 8 7 7 7 6 5 5 5 6 7 8 8 7 7 6 6 6 7 7 6 6 6 6 5 5 6 7 7 6 6 5 6 6 6 7 7 7 7 6 6 6 5 5 5 5 5 5 5 5 5 5 5 5 5 6
3 6 11 11 8 2 -8 5 20 27 15 6 0 -2 3 -2 0 3 0 -3 -5 -4 2 6 6 5 5 5 5 5 4 3 2 3 4 2 1 1 3 7 9 10 9 7 6 6 8 8 8 7 6 6 6 6 5 6 6 7 8 7 7 6 6 6 6 6 7 6 6 6 6 5 5 6 6 7 6 6 6 6 7 7 7 7 8 7 7 6 6 6 5 5 5 5 5 5 5 5 5 5 5 6 6
3 4 8 10 9 4 -6 1 14 24 17 12 3 -1 8 3 1 1 -1 -4 -5 -4 2 5 6 5 5 5 5 5 4 2 2 2 3 3 2 2 5 8 9 9 8 6 6 7 8 8 7 6 6 7 6 6 6 6 6 7 7 7 7 7 6 6 6 6 6 6 5 6 6 5 5 6 6 7 6 6 6 7 7 8 8 8 8 8 7 7 6 5 5 5 5 5 6 5 5 5 5 5 6 6 6
3 3 6 9 9 5 -5 -4 9 23 26 18 6 1 12 1 -1 -1 -3 -5 -4 -1 3 4 5 5 5 5 5 5 3 2 1 2 3 2 3 4 7 9 9 8 7 6 6 7 8 8 7 6 6 7 7 6 6 6 6 6 7 7 7 7 6 6 6 6 6 6 5 6 6 6 6 6 6 7 6 6 7 7 8 8 9 9 8 8 7 6 6 5 5 5 5 6 6 6 5 5 5 6 6 6 6
3 2 4 7 9 7 -2 -7 7 25 32 20 10 7 17 2 -1 -1 -4 -5 -3 1 4 5 5 6 6 5 5 5 3 2 1 1 2 2 3 5 8 9 9 7 6 6 6 7 8 8 7 6 6 7 7 6 6 6 6 6 7 7 8 7 7 6 6 6 6 6 6 6 7 6 6 6 6 7 7 7 7 7 8 8 9 8 7 7 6 6 5 5 5 5 6 6 6 6 5 5 5 6 6 6 6
5 2 2 5 7 7 0 -8 6 24 31 15 13 18 26 7 -2 -4 -4 -4 -1 3 6 6 6 6 6 5 5 5 3 1 1 1 2 3 4 6 9 9 8 7 6 6 6 7 8 8 7 6 6 7 7 7 6 6 6 6 6 7 8 8 7 6 6 6 6 6 6 6 7 7 7 7 6 7 7 7 7 7 8 8 8 7 6 6 6 6 6 6 6 6 6 6 6 6 5 6 6 6 6 6 6
8 3 1 3 6 6 1 -6 5 19 23 10 15 25 25 6 -3 -6 -5 -4 0 4 7 6 6 6 6 5 5 4 2 2 2 2 3 3 5 7 9 8 7 6 5 5 6 7 8 8 7 7 6 7 7 7 6 6 6 6 6 7 8 8 7 6 6 6 6 6 6 6 7 7 7 7 7 7 7 7 7 7 8 8 8 6 6 6 6 6 6 6 6 6 6 6 6 6 6 6 6 6 6 6 6
10 4 0 2 5 6 3 -4 5 16 16 12 20 27 23 5 -4 -6 -4 -3 1 4 6 6 5 5 6 5 4 3 2 2 2 2 3 3 5 7 8 8 6 5 5 6 7 8 9 8 8 7 6 7 7 7 6 6 6 6 6 6 7 8 8 6 6 5 5 6 6 6 6 7 7 7 7 7 7 7 7 7 8 7 7 6 6 6 6 6 6 6 6 6 6 6 6 6 6 6 6 6 6 6 7
13 6 1 2 4 6 4 -0 6 14 14 16 24 28 19 5 -2 -4 -3 -2 1 4 6 6 5 5 5 4 3 2 1 2 2 2 3 4 5 7 7 7 6 5 5 6 7 8 9 8 8 7 6 6 7 7 6 6 6 6 6 6 7 7 7 6 6 5 5 5 5 5 6 7 7 7 7 7 7 7 7 7 7 7 6 6 6 6 6 6 6 6 6 6 6 6 5 5 6 6 6 6 7 7 7
16 9 2 1 3 4 3 3 7 12 13 18 24 24 14 4 1 0 1 -2 -0 4 6 6 5 5 5 4 3 2 2 2 2 3 3 4 5 6 6 6 5 5 5 6 7 8 9 9 8 7 6 6 6 6 6 6 7 7 6 6 7 7 7 6 6 5 5 5 5 5 7 7 7 7 8 8 8 8 8 8 7 7 7 7 7 6 6 6 6 6 6 6 6 6 6 6 6 6 6 7 7 7 8
18 12 5 2 2 3 2 4 7 11 13 17 20 18 9 1 1 3 1 -3 -1 3 7 7 6 5 5 4 3 2 2 2 3 3 4 5 5 6 5 5 5 5 5 7 8 8 9 9 8 7 6 6 6 6 6 6 7 7 7 6 6 6 6 6 5 5 5 4 4 5 7 8 8 9 9 8 8 8 8 7 7 7 7 7 7 6 6 6 6 6 6 6 6 6 6 6 6 7 7 7 8 8 8
19 14 7 3 2 2 2 4 6 9 14 21 21 15 5 0 2 4 -1 -4 -2 2 6 7 7 5 5 4 3 2 2 2 3 3 4 5 5 5 5 5 5 5 6 7 8 8 9 8 8 7 7 6 6 5 6 6 7 7 6 6 6 6 6 6 5 5 4 4 5 6 7 7 8 9 10 9 9 8 8 7 7 7 7 7 6 6 6 6 6 6 6 6 6 6 6 6 7 7 8 8 8 8 8
20 15 9 4 2 2 2 4 6 9 16 27 26 17 4 1 3 3 -2 -5 -3 1 6 8 8 7 5 4 3 2 1 2 2 3 4 5 5 5 4 4 5 5 6 7 8 9 9 8 8 7 7 6 6 5 5 6 6 6 6 6 6 6 6 6 5 5 4 4 5 6 7 7 8 8 9 9 9 8 8 7 7 6 6 6 6 6 6 6 6 6 6 6 6 6 6 7 7 7 8 8 8 8 8
20 17 10 5 3 2 3 6 6 9 19 30 27 15 1 2 3 2 -3 -5 -3 0 5 8 9 8 6 5 3 2 1 1 2 3 5 5 5 5 4 4 5 6 7 8 8 9 9 9 8 7 6 6 6 5 5 5 6 6 6 7 7 7 6 6 5 5 5 5 5 6 7 7 8 8 8 8 8 8 7 7 6 6 6 6 6 6 6 6 7 7 7 7 7 7 7 7 7 8 8 8 8 8 9
20 18 12 6 3 2 4 7 6 8 21 29 24 11 -2 2 4 3 -5 -5 -3 0 6 8 9 8 7 6 4 3 2 2 3 4 5 5 5 4 4 5 5 6 7 8 9 9 9 9 8 7 6 6 6 5 5 5 6 6 7 7 7 6 7 6 6 6 5 5 6 6 6 7 8 8 8 8 7 7 6 6 6 6 6 6 6 6 6 7 7 7 7 7 7 7 7 7 7 8 8 8 9 9 9
20 18 14 8 4 3 5 6 4 8 25 27 20 8 -4 3 4 2 -4 -5 -4 0 7 9 9 8 7 5 5 4 3 3 4 5 5 5 5 4 4 5 5 6 8 8 9 9 9 8 7 6 6 6 5 5 5 5 6 6 7 6 6 7 8 7 7 6 6 6 6 5 5 6 7 8 8 7 7 6 6 6 6 6 6 6 6 6 7 7 7 7 7 7 7 7 7 7 8 8 9 9 9 9 9
20 18 15 10 6 4 6 3 2 10 30 27 17 5 -4 2 3 1 -3 -6 -4 0 8 11 10 8 6 5 5 4 4 4 4 5 6 5 4 4 4 5 6 7 8 8 9 9 9 8 7 6 6 6 5 5 5 5 5 6 6 6 7 8 9 9 8 6 6 5 5 5 6 6 7 8 8 7 6 6 6 6 6 6 6 6 6 7 7 7 7 7 7 7 7 7 7 8 8 8 9 9 9 9 9
19 18 15 10 7 5 5 -3 1 14 35 27 14 3 -3 1 3 2 -3 -6 -5 0 9 12 11 8 6 5 4 4 4 4 4 5 6 5 5 4 4 5 5 7 7 8 9 9 8 8 7 6 6 5 5 5 5 5 5 5 5 6 8 10 11 9 8 6 5 5 4 5 6 7 7 8 8 7 7 6 6 6 6 7 7 6 6 7 7 7 7 7 6 7 7 7 7 8 8 9 9 9 9 9 8
19 17 14 10 7 5 2 -9 -1 19 41 28 13 2 -2 3 6 4 -1 -4 -4 0 9 12 11 8 6 4 3 3 3 4 4 5 5 5 4 4 4 5 5 6 7 8 8 8 7 7 7 6 6 5 5 5 5 5 4 4 5 7 9 11 11 9 8 6 5 4 4 5 6 7 7 8 8 8 7 7 7 7 7 7 7 6 6 6 6 6 6 6 6 7 7 7 8 8 8 9 9 9 9 8 8
18 17 14 11 8 4 -2 -13 -1 22 42 29 14 3 1 6 7 3 -2 -4 -2 2 9 11 11 8 5 3 2 1 2 3 4 5 6 5 3 3 3 5 6 6 7 7 8 8 7 7 6 6 5 5 5 4 4 4 4 5 5 7 10 11 11 9 7 6 4 4 4 5 6 7 7 7 8 8 8 8 8 7 7 7 7 6 6 6 6 6 6 6 7 7 7 8 8 8 8 9 9 8 8 8 7
19 17 15 12 9 4 -6 -14 1 23 38 29 15 5 4 6 3 -2 -8 -6 -2 4 9 11 10 8 5 3 2 1 2 3 4 4 5 4 4 3 3 4 4 5 6 7 7 7 7 7 6 5 5 5 4 4 4 4 4 5 6 8 10 11 11 9 7 5 4 4 4 5 6 6 7 7 7 7 7 8 7 7 7 7 6 6 6 6 6 6 6 6 7 7 7 8 8 8 8 9 8 8 7 7 6
19 17 15 12 9 3 -9 -13 2 22 35 28 16 6 5 4 -2 -8 -10 -5 -1 3 8 11 11 8 5 4 2 2 2 3 5 5 3 3 4 5 4 4 5 5 5 7 7 8 7 7 6 5 5 4 4 4 4 4 5 6 7 9 10 11 10 9 7 6 5 5 5 5 6 6 6 7 7 7 7 7 7 7 7 6 6 6 6 6 6 6 6 7 7 7 8 8 8 8 8 8 8 7 7 6 6
19 18 15 12 8 0 -12 -11 3 19 28 25 15 7 7 3 -4 -9 -7 -5 -2 1 7 10 11 8 5 3 3 2 3 4 5 5 4 3 2 3 4 5 5 5 5 6 7 8 8 8 7 5 4 4 4 4 4 5 5 6 7 9 10 11 10 9 8 6 5 5 5 6 6 6 6 6 6 7 7 7 7 7 6 6 6 6 6 6 6 7 7 7 7 8 8 8 8 8 8 8 8 7 7 6 6
20 18 15 11 6 -2 -15 -10 4 19 24 20 15 10 10 4 -2 -6 -4 -4 -3 -0 7 11 11 8 5 3 2 2 3 5 5 4 3 4 2 1 3 6 6 6 6 6 6 6 8 8 8 7 5 4 4 4 5 6 6 7 8 9 10 11 10 9 8 7 6 5 5 6 6 6 6 6 6 7 7 7 7 7 6 6 6 6 6 6 6 7 7 7 8 8 8 9 9 8 8 8 7 7 6 6 6
21 19 15 11 5 -3 -16 -10 5 20 25 18 13 11 12 5 0 -2 -1 -4 -4 -1 6 12 12 9 5 3 2 1 3 5 5 4 1 4 5 4 3 4 5 7 7 7 6 6 6 7 7 7 7 5 5 5 7 8 8 8 8 9 10 11 11 10 9 7 6 5 5 6 6 6 6 6 6 7 7 7 7 7 6 6 6 6 6 6 7 7 7 8 8 8 9 9 9 8 8 8 7 7 6 6 6
22 18 14 10 5 -3 -17 -11 5 22 30 19 12 10 13 7 3 1 1 -2 -4 -2 5 12 14 11 5 3 2 2 2 4 5 5 3 3 4 6 4 4 5 6 7 7 6 6 6 7 6 5 6 6 6 6 8 10 10 10 9 10 11 11 12 11 9 8 6 6 5 6 6 6 6 6 6 7 7 7 7 7 6 6 6 6 6 6 7 7 8 8 9 9 9 9 9 8 8 7 7 7 6 6 6
21 17 15 10 5 -3 -16 -13 2 21 34 22 12 8 13 9 6 3 0 -3 -3 -1 5 12 14 12 7 5 3 3 3 4 5 5 5 2 0 0 4 5 5 6 5 6 6 7 6 6 6 6 4 5 6 7 9 10 11 10 10 10 11 12 12 11 10 8 7 6 6 6 6 5 5 6 6 7 7 7 6 6 6 6 6 6 6 7 7 8 8 9 9 9 9 9 9 8 8 7 7 6 6 6 5
20 17 16 12 7 -2 -15 -15 -3 16 35 22 12 8 14 11 6 0 -4 -5 -2 3 8 13 15 13 8 6 5 5 5 5 5 5 5 3 -1 -2 1 5 7 7 6 4 5 6 7 6 5 5 5 5 6 7 8 9 9 9 10 10 11 12 12 12 10 9 7 6 5 5 5 5 5 6 6 6 6 6 6 6 6 6 6 6 6 7 8 9 9 9 9 9 9 9 9 8 8 7 7 6 6 5 5
18 16 16 13 8 -1 -14 -17 -7 11 32 20 12 10 16 10 3 -4 -7 -8 -5 1 8 14 15 14 10 7 5 5 6 6 6 5 4 3 2 1 0 3 5 6 4 5 5 5 7 6 5 5 6 5 6 6 6 8 9 9 9 10 11 11 12 11 10 9 7 6 5 5 5 5 5 6 6 6 6 6 6 6 6 6 6 6 7 7 8 9 9 10 10 9 9 9 8 8 7 7 6 6 5 5 5
17 14 15 14 10 2 -13 -18 -9 8 29 21 16 14 18 8 -0 -6 -8 -8 -8 -4 5 12 15 14 10 7 5 5 5 6 7 6 4 3 2 2 2 2 4 5 5 3 4 8 11 9 7 6 5 6 7 7 7 8 8 9 9 9 10 11 12 11 10 9 7 6 5 4 4 5 6 6 6 6 6 6 6 6 6 6 6 7 7 7 8 8 9 9 10 9 9 9 9 8 7 6 6 5 5 5 5
17 14 14 14 12 4 -12 -17 -9 5 24 25 25 23 18 5 -4 -8 -8 -7 -7 -3 4 11 14 14 10 7 5 5 5 5 7 7 7 4 2 1 2 3 3 4 5 5 5 5 5 6 7 7 6 6 7 9 8 9 9 9 10 10 10 11 11 11 10 9 8 6 5 4 4 5 6 6 6 6 6 6 6 6 6 7 7 7 7 7 8 8 9 9 9 9 9 9 8 7 6 6 5 5 5 6 6
17 13 12 13 12 5 -11 -15 -9 4 19 29 31 27 14 0 -8 -10 -8 -7 -5 -1 6 11 14 13 10 7 6 5 5 5 6 7 7 5 3 2 2 2 3 3 4 4 4 5 5 6 6 5 5 5 6 8 10 11 11 10 10 10 11 11 12 12 11 9 8 7 6 5 5 5 6 6 6 6 6 6 6 7 7 7 7 7 7 7 8 8 9 9 9 8 8 8 8 7 6 5 5 6 6 7 7
14 11 10 13 12 5 -11 -13 -8 4 18 31 32 23 6 -5 -9 -9 -7 -8 -5 -0 8 12 14 13 10 7 6 5 5 6 7 7 5 4 4 4 2 2 2 3 3 4 4 4 4 5 5 4 4 4 4 5 8 10 11 11 11 10 11 11 12 11 11 9 8 7 6 5 5 6 6 7 7 6 6 6 6 7 7 7 7 7 7 7 8 9 9 9 8 7 7 6 6 6 5 5 6 6 7 7 7
Height
3099 3100 3101 3103 3105 3106 3107 3108 3108 3109 3109 3110 3111 3111 3112 3113 3113 3115 3116 3117 3118 3119 3120 3121 3122 3123 3124 3125 3127 3128 3128 3129 3129 3130 3130 3131 3131 3132 3132 3132 3133 3133 3133 3133 3133 3134 3134 3134 3134 3134 3134 3134 3134 3134 3135 3135 3136 3136 3137 3137 3136 3136 3136 3137 3137 3138 3138 3138 3138 3138 3138 3139 3140 3140 3140 3141 3141 3142 3142 3142 3143 3143 3143 3144 3144 3144 3144 3145 3145 3145 3145 3145 3145 3145 3146 3146 3146 3146 3146 3146 3146 3146 3146
3098 3099 3099 3101 3102 3104 3105 3106 3107 3108 3108 3108 3109 3109 3110 3111 3112 3113 3114 3115 3116 3117 3118 3119 3120 3122 3123 3124 3125 3127 3128 3128 3128 3128 3129 3129 3130 3131 3131 3131 3131 3132 3132 3132 3133 3133 3133 3133 3133 3133 3133 3133 3133 3133 3134 3135 3135 3136 3136 3136 3136 3136 3137 3137 3137 3137 3138 3138 3138 3138 3138 3139 3139 3140 3140 3140 3141 3141 3142 3142 3143 3143 3143 3143 3144 3144 3144 3144 3144 3144 3144 3145 3145 3145 3145 3145 3145 3145 3146 3146 3146 3146 3146
3096 3097 3098 3098 3100 3102 3103 3104 3105 3106 3107 3107 3108 3108 3109 3109 3110 3112 3113 3114 3115 3116 3117 3118 3119 3120 3121 3123 3124 3125 3126 3127 3127 3127 3128 3128 3129 3130 3130 3130 3130 3131 3131 3131 3131 3132 3132 3132 3132 3132 3132 3132 3133 3133 3133 3134 3134 3135 3136 3136 3136 3136 3137 3137 3136 3137 3137 3138 3137 3137 3138 3138 3139 3139 3140 3140 3140 3141 3141 3142 3142 3143 3143 3143 3143 3143 3143 3144 3144 3144 3144 3144 3144 3144 3144 3145 3145 3145 3145 3145 3145 3145 3145
3093 3095 3096 3096 3097 3099 3101 3102 3103 3105 3106 3106 3106 3107 3108 3108 3109 3110 3111 3112 3113 3114 3115 3116 3117 3118 3120 3122 3123 3124 3125 3125 3126 3126 3126 3127 3128 3128 3129 3129 3129 3130 3130 3130 3130 3131 3131 3131 3131 3131 3132 3132 3132 3132 3133 3133 3133 3135 3136 3136 3136 3136 3136 3135 3134 3135 3136 3136 3137 3137 3137 3138 3138 3139 3139 3140 3140 3140 3141 3141 3142 3142 3143 3143 3143 3143 3143 3143 3143 3143 3143 3143 3144 3144 3144 3144 3144 3144 3144 3145 3145 3145 3145
3091 3093 3093 3094 3095 3096 3098 3100 3102 3103 3104 3105 3105 3106 3106 3107 3108 3108 3109 3110 3111 3112 3113 3114 3115 3117 3118 3120 3122 3123 3123 3124 3124 3124 3125 3126 3127 3127 3128 3128 3128 3128 3129 3129 3129 3130 3130 3130 3130 3130 3131 3131 3132 3132 3132 3132 3132 3133 3135 3135 3135 3135 3136 3134 3134 3134 3135 3135 3135 3136 3136 3137 3138 3138 3139 3139 3139 3140 3140 3141 3141 3142 3142 3142 3143 3143 3143 3143 3143 3143 3143 3143 3143 3143 3143 3143 3144 3144 3144 3144 3144 3144 3144
3089 3090 3092 3092 3093 3094 3095 3097 3099 3101 3103 3103 3104 3104 3104 3105 3106 3107 3108 3109 3110 3111 3112 3113 3114 3115 3117 3119 3120 3121 3122 3123 3123 3123 3124 3124 3125 3126 3127 3127 3127 3128 3128 3128 3128 3128 3129 3129 3129 3129 3129 3130 3131 3132 3132 3131 3131 3132 3134 3134 3134 3134 3134 3134 3134 3134 3134 3134 3135 3135 3136 3136 3137 3138 3138 3138 3139 3139 3140 3140 3141 3141 3141 3142 3142 3142 3142 3142 3142 3142 3142 3142 3142 3143 3143 3143 3143 3143 3143 3143 3143 3143 3144
3087 3088 3090 3090 3090 3091 3092 3095 3097 3099 3101 3102 3103 3103 3103 3104 3104 3105 3107 3108 3108 3109 3110 3112 3113 3114 3116 3117 3119 3120 3121 3121 3122 3122 3123 3123 3124 3124 3125 3126 3126 3126 3127 3127 3127 3128 3128 3128 3128 3128 3128 3128 3130 3131 3131 3130 3130 3131 3133 3133 3133 3133 3133 3133 3133 3133 3133 3134 3134 3135 3135 3135 3136 3137 3138 3138 3138 3139 3139 3140 3140 3140 3141 3141 3141 3141 3141 3141 3141 3141 3142 3142 3142 3142 3142 3142 3143 3143 3143 3143 3143 3143 3143
3085 3086 3087 3088 3088 3088 3090 3092 3095 3097 3098 3100 3101 3102 3103 3103 3103 3104 3105 3106 3107 3108 3109 3110 3111 3113 3114 3116 3117 3118 3119 3120 3120 3121 3121 3122 3123 3123 3124 3124 3125 3125 3125 3126 3126 3126 3127 3127 3127 3127 3126 3127 3128 3130 3130 3130 3130 3130 3132 3133 3133 3132 3132 3132 3132 3132 3133 3133 3133 3134 3134 3135 3135 3136 3137 3138 3138 3138 3139 3139 3139 3140 3140 3140 3140 3140 3140 3140 3140 3141 3141 3141 3141 3141 3142 3142 3142 3142 3142 3142 3142 3143 3143
3083 3084 3084 3085 3085 3086 3088 3090 3092 3094 3096 3098 3099 3100 3101 3101 3102 3102 3103 3104 3105 3107 3108 3108 3110 3111 3113 3115 3116 3117 3118 3118 3119 3119 3120 3120 3121 3122 3122 3123 3123 3124 3124 3124 3125 3125 3126 3126 3126 3126 3126 3125 3127 3128 3129 3129 3129 3130 3130 3131 3132 3131 3131 3131 3131 3131 3132 3132 3133 3133 3134 3134 3134 3135 3136 3137 3138 3138 3138 3138 3138 3139 3139 3139 3139 3139 3139 3139 3140 3140 3140 3140 3140 3141 3141 3141 3141 3141 3142 3142 3142 3142 3142
3080 3082 3083 3083 3083 3084 3087 3088 3090 3092 3094 3096 3098 3098 3099 3099 3100 3101 3102 3103 3104 3105 3106 3107 3108 3110 3112 3113 3114 3116 3116 3117 3118 3118 3118 3119 3120 3120 3121 3122 3122 3123 3123 3123 3123 3124 3124 3125 3124 3124 3125 3124 3125 3126 3128 3128 3128 3129 3129 3130 3130 3130 3130 3130 3130 3130 3131 3131 3132 3133 3133 3133 3134 3135 3135 3136 3137 3137 3137 3138 3138 3138 3138 3138 3138 3138 3139 3139 3139 3139 3139 3139 3140 3140 3140 3140 3141 3141 3141 3141 3141 3141 3141
3078 3080 3081 3081 3082 3083 3085 3086 3088 3090 3092 3094 3095 3097 3097 3098 3098 3099 3100 3101 3102 3103 3104 3106 3107 3109 3110 3112 3113 3114 3115 3115 3116 3117 3117 3118 3118 3119 3120 3120 3121 3121 3122 3122 3123 3123 3123 3123 3123 3123 3123 3123 3123 3125 3126 3127 3128 3128 3128 3129 3129 3129 3129 3129 3129 3130 3130 3131 3131 3132 3132 3133 3133 3134 3135 3135 3136 3136 3137 3137 3137 3137 3137 3138 3138 3138 3138 3138 3138 3138 3138 3139 3139 3139 3139 3140 3140 3140 3140 3140 3140 3140 3140
3076 3078 3078 3079 3080 3082 3083 3084 3086 3087 3089 3091 3093 3095 3095 3096 3097 3098 3098 3099 3101 3102 3103 3104 3106 3108 3109 3110 3112 3112 3113 3114 3115 3116 3116 3117 3117 3118 3118 3119 3119 3120 3120 3121 3121 3122 3122 3123 3122 3122 3122 3122 3122 3123 3125 3126 3127 3127 3128 3128 3128 3128 3128 3128 3128 3128 3129 3130 3131 3131 3131 3132 3133 3133 3134 3134 3135 3135 3136 3136 3136 3136 3136 3137 3137 3137 3137 3137 3138 3138 3138 3138 3138 3138 3139 3139 3139 3139 3139 3139 3139 3139 3139
3073 3075 3077 3077 3078 3078 3080 3082 3083 3085 3086 3088 3090 3092 3094 3095 3096 3096 3097 3098 3099 3100 3101 3103 3104 3106 3108 3109 3110 3111 3112 3113 3113 3114 3115 3115 3116 3116 3117 3118 3118 3119 3119 3120 3120 3121 3121 3121 3121 3121 3121 3120 3120 3122 3124 3126 3126 3126 3127 3127 3127 3127 3127 3127 3127 3128 3128 3129 3130 3130 3131 3131 3132 3133 3133 3133 3134 3134 3135 3135 3135 3135 3136 3136 3136 3136 3136 3137 3137 3137 3137 3137 3138 3138 3138 3138 3138 3138 3139 3139 3139 3139 3138
3071 3073 3074 3074 3074 3076 3077 3079 3081 3082 3084 3086 3088 3090 3092 3093 3094 3095 3096 3096 3098 3099 3100 3101 3103 3105 3106 3107 3108 3109 3110 3111 3112 3113 3114 3114 3114 3115 3116 3117 3117 3118 3118 3118 3119 3119 3119 3120 3120 3120 3119 3119 3119 3120 3123 3125 3126 3125 3126 3126 3126 3126 3126 3127 3128 3128 3127 3128 3129 3130 3130 3130 3131 3132 3132 3133 3133 3133 3133 3134 3134 3134 3135 3135 3135 3135 3136 3136 3136 3136 3136 3137 3137 3137 3137 3137 3138 3138 3138 3138 3138 3138 3138
3068 3070 3072 3072 3072 3073 3074 3077 3078 3080 3083 3084 3086 3088 3090 3092 3093 3093 3094 3095 3096 3097 3098 3100 3102 3103 3104 3106 3107 3108 3109 3110 3111 3112 3113 3113 3113 3114 3115 3115 3116 3116 3117 3117 3118 3118 3118 3118 3118 3118 3118 3118 3118 3119 3122 3124 3125 3124 3124 3125 3125 3125 3126 3126 3127 3127 3126 3127 3128 3129 3129 3130 3130 3131 3132 3132 3132 3133 3133 3133 3133 3133 3134 3134 3134 3134 3135 3135 3135 3135 3136 3136 3136 3136 3136 3137 3137 3137 3137 3137 3137 3137 3137
3066 3068 3069 3070 3070 3070 3072 3074 3077 3078 3081 3083 3084 3086 3088 3090 3091 3092 3093 3093 3094 3095 3097 3098 3100 3101 3103 3104 3105 3106 3107 3108 3109 3110 3111 3111 3112 3113 3113 3114 3114 3115 3116 3116 3116 3116 3117 3117 3117 3117 3117 3117 3117 3118 3121 3123 3123 3123 3123 3123 3124 3125 3125 3126 3126 3126 3126 3126 3127 3128 3129 3129 3129 3130 3131 3131 3131 3132 3132 3132 3132 3133 3133 3133 3133 3134 3134 3134 3134 3134 3135 3135 3135 3135 3135 3136 3136 3136 3136 3136 3136 3136 3136
3063 3065 3067 3068 3068 3069 3070 3072 3074 3077 3078 3080 3082 3083 3085 3087 3089 3090 3091 3091 3093 3094 3095 3097 3098 3100 3101 3102 3103 3104 3106 3107 3108 3108 3109 3110 3110 3111 3112 3113 3113 3114 3115 3115 3115 3115 3115 3116 3116 3116 3116 3116 3116 3118 3120 3122 3122 3123 3122 3123 3123 3124 3124 3125 3125 3125 3126 3126 3127 3127 3128 3128 3129 3129 3130 3130 3130 3131 3131 3131 3132 3132 3132 3132 3133 3133 3133 3133 3133 3134 3134 3134 3134 3134 3134 3135 3135 3135 3135 3135 3135 3135 3135
3061 3063 3065 3066 3067 3068 3068 3070 3073 3075 3076 3077 3078 3080 3083 3085 3087 3088 3089 3090 3091 3092 3093 3095 3097 3098 3099 3101 3102 3103 3103 3105 3106 3107 3108 3108 3109 3110 3111 3112 3112 3113 3113 3113 3113 3113 3114 3114 3114 3114 3115 3115 3116 3117 3119 3120 3121 3121 3121 3122 3122 3122 3123 3124 3125 3125 3125 3125 3126 3127 3127 3128 3128 3128 3129 3129 3129 3130 3130 3130 3131 3131 3131 3132 3132 3132 3132 3133 3133 3133 3133 3133 3133 3133 3133 3134 3134 3134 3134 3134 3134 3134 3134
3058 3061 3062 3064 3065 3066 3066 3068 3070 3073 3074 3075 3076 3078 3080 3082 3084 3086 3087 3088 3089 3091 3092 3093 3095 3096 3098 3099 3100 3101 3102 3103 3104 3105 3106 3107 3108 3108 3109 3110 3111 3112 3112 3112 3112 3112 3113 3113 3113 3113 3113 3114 3115 3116 3118 3119 3120 3120 3120 3121 3121 3122 3122 3123 3123 3124 3124 3125 3125 3125 3126 3127 3127 3128 3128 3128 3128 3129 3129 3129 3130 3130 3130 3131 3131 3131 3131 3132 3132 3132 3132 3132 3133 3133 3133 3133 3133 3133 3133 3133 3133 3133 3133
3056 3058 3060 3062 3063 3063 3064 3065 3068 3070 3072 3073 3074 3076 3078 3080 3082 3083 3085 3086 3088 3088 3090 3091 3093 3094 3096 3097 3098 3099 3101 3102 3103 3104 3105 3105 3106 3107 3108 3109 3110 3110 3111 3111 3111 3111 3112 3112 3112 3113 3113 3113 3114 3115 3117 3118 3118 3119 3119 3120 3120 3121 3122 3122 3123 3123 3123 3124 3123 3124 3125 3125 3126 3127 3127 3127 3127 3128 3128 3128 3129 3129 3129 3130 3130 3130 3130 3131 3131 3131 3131 3131 3132 3132 3132 3132 3132 3132 3132 3132 3132 3132 3132
3053 3055 3057 3059 3061 3062 3062 3063 3065 3068 3070 3071 3073 3074 3076 3077 3079 3082 3083 3084 3085 3087 3088 3089 3091 3092 3094 3095 3097 3098 3099 3100 3101 3103 3103 3104 3105 3106 3107 3108 3108 3109 3109 3109 3109 3110 3110 3111 3111 3112 3112 3112 3113 3114 3116 3117 3117 3118 3118 3119 3119 3120 3120 3121 3122 3122 3122 3123 3123 3123 3123 3124 3125 3126 3126 3126 3126 3127 3127 3128 3128 3128 3128 3129 3129 3129 3129 3130 3130 3130 3130 3130 3131 3131 3131 3131 3131 3131 3131 3130 3130 3130 3130
3051 3053 3054 3056 3058 3060 3060 3061 3063 3066 3068 3069 3071 3073 3075 3075 3076 3079 3081 3082 3083 3085 3086 3087 3089 3090 3092 3093 3095 3096 3098 3099 3100 3101 3102 3103 3104 3105 3106 3107 3107 3108 3108 3108 3108 3108 3109 3109 3110 3111 3111 3111 3112 3114 3115 3116 3116 3117 3118 3118 3118 3119 3119 3120 3120 3121 3121 3122 3122 3122 3122 3123 3124 3124 3125 3125 3125 3125 3126 3126 3127 3127 3128 3128 3128 3128 3128 3128 3129 3129 3129 3129 3130 3130 3130 3130 3130 3130 3129 3129 3129 3129 3129
3048 3050 3052 3054 3056 3058 3058 3059 3061 3063 3065 3067 3069 3071 3072 3072 3073 3077 3079 3080 3081 3083 3083 3085 3087 3088 3090 3092 3093 3095 3096 3098 3099 3100 3101 3101 3103 3103 3104 3105 3106 3106 3106 3106 3107 3107 3108 3108 3109 3109 3110 3110 3111 3113 3114 3114 3115 3116 3116 3117 3118 3118 3118 3119 3119 3120 3120 3121 3121 3121 3121 3122 3123 3123 3124 3124 3124 3124 3125 3125 3126 3126 3127 3127 3127 3127 3127 3128 3128 3128 3128 3128 3128 3129 3129 3129 3129 3128 3128 3128 3128 3128 3128
3046 3048 3050 3052 3054 3056 3056 3057 3059 3061 3063 3065 3067 3069 3068 3069 3072 3075 3076 3078 3079 3081 3082 3083 3085 3087 3088 3090 3092 3093 3095 3096 3098 3098 3099 3100 3101 3102 3103 3104 3104 3104 3105 3105 3105 3106 3106 3107 3108 3108 3108 3109 3110 3112 3113 3113 3114 3115 3115 3116 3117 3117 3118 3118 3118 3118 3119 3119 3120 3120 3121 3121 3121 3122 3123 3123 3123 3123 3124 3124 3125 3125 3126 3126 3126 3126 3126 3127 3127 3127 3127 3127 3128 3128 3128 3128 3128 3127 3127 3127 3127 3127 3127
3043 3046 3048 3050 3052 3053 3054 3055 3057 3059 3061 3063 3065 3066 3065 3068 3070 3072 3073 3075 3077 3079 3080 3081 3083 3085 3087 3088 3090 3092 3093 3095 3096 3097 3098 3099 3100 3101 3102 3102 3103 3103 3103 3104 3104 3104 3105 3106 3107 3107 3107 3107 3108 3110 3112 3112 3113 3113 3114 3115 3115 3116 3117 3117 3117 3117 3118 3118 3118 3119 3119 3119 3120 3121 3121 3122 3122 3122 3123 3123 3124 3124 3124 3125 3125 3125 3125 3126 3126 3126 3126 3126 3127 3127 3127 3127 3126 3126 3126 3126 3126 3126 3126
3041 3043 3045 3047 3049 3051 3053 3053 3054 3057 3059 3061 3063 3063 3061 3065 3068 3070 3071 3073 3075 3077 3078 3079 3081 3083 3085 3087 3088 3090 3092 3093 3095 3096 3097 3098 3098 3099 3100 3101 3101 3101 3102 3102 3103 3103 3104 3105 3105 3106 3105 3106 3107 3109 3111 3111 3112 3113 3113 3114 3114 3115 3116 3116 3116 3116 3117 3117 3118 3118 3117 3118 3119 3120 3120 3121 3121 3121 3122 3123 3123 3123 3123 3124 3124 3124 3124 3124 3125 3125 3125 3125 3125 3125 3125 3125 3125 3125 3125 3125 3124 3124 3124
3039 3041 3043 3045 3047 3049 3051 3050 3052 3054 3056 3059 3059 3058 3060 3064 3066 3068 3069 3071 3073 3075 3076 3078 3079 3081 3083 3085 3087 3088 3090 3092 3093 3094 3095 3096 3097 3098 3098 3099 3099 3100 3100 3101 3101 3102 3103 3104 3104 3104 3104 3104 3106 3108 3109 3110 3111 3111 3112 3113 3113 3114 3114 3115 3115 3116 3116 3116 3117 3117 3117 3117 3117 3118 3119 3120 3120 3120 3121 3121 3122 3122 3123 3123 3123 3123 3123 3123 3124 3124 3124 3124 3124 3124 3124 3124 3124 3124 3123 3123 3123 3123 3123
3037 3038 3041 3043 3044 3047 3048 3048 3048 3051 3055 3057 3056 3055 3059 3062 3064 3066 3067 3069 3071 3073 3074 3076 3077 3079 3081 3083 3085 3087 3088 3090 3091 3092 3093 3095 3096 3097 3097 3097 3098 3098 3098 3099 3100 3101 3102 3103 3103 3103 3103 3103 3105 3107 3108 3109 3110 3110 3111 3112 3112 3113 3113 3114 3114 3115 3115 3115 3116 3116 3116 3117 3117 3118 3118 3119 3119 3119 3120 3120 3121 3121 3121 3122 3122 3122 3122 3123 3123 3123 3123 3123 3123 3123 3123 3123 3123 3123 3122 3122 3122 3122 3122
3034 3036 3038 3040 3042 3044 3046 3046 3046 3049 3053 3054 3053 3053 3058 3060 3062 3063 3065 3067 3068 3071 3073 3074 3076 3077 3079 3081 3083 3085 3086 3088 3089 3090 3092 3093 3095 3095 3096 3096 3096 3097 3097 3098 3099 3100 3100 3101 3102 3101 3101 3103 3104 3106 3107 3108 3108 3109 3110 3111 3111 3112 3112 3113 3113 3114 3114 3114 3114 3115 3115 3116 3116 3117 3117 3118 3118 3118 3118 3119 3120 3120 3120 3121 3121 3121 3121 3121 3122 3122 3122 3122 3122 3122 3122 3122 3122 3121 3121 3121 3121 3121 3120
3031 3034 3036 3038 3040 3042 3044 3044 3044 3046 3050 3049 3049 3052 3057 3058 3058 3060 3063 3065 3067 3068 3070 3072 3074 3076 3078 3079 3081 3083 3084 3086 3087 3088 3090 3092 3093 3094 3094 3094 3095 3095 3095 3096 3098 3098 3099 3100 3100 3099 3099 3101 3103 3105 3106 3107 3108 3108 3109 3109 3110 3111 3111 3112 3112 3113 3113 3113 3113 3114 3114 3114 3115 3115 3116 3117 3117 3117 3118 3118 3118 3119 3119 3119 3120 3120 3120 3120 3120 3120 3121 3121 3121 3121 3121 3120 3120 3120 3120 3120 3120 3119 3119
3029 3032 3034 3035 3037 3040 3042 3042 3042 3043 3046 3046 3048 3051 3055 3056 3057 3058 3061 3063 3064 3066 3068 3070 3072 3074 3076 3078 3080 3081 3083 3084 3085 3087 3088 3091 3092 3093 3093 3093 3093 3093 3094 3095 3096 3097 3098 3098 3098 3098 3098 3100 3102 3103 3104 3105 3106 3107 3108 3108 3108 3109 3110 3111 3111 3112 3112 3112 3113 3113 3113 3113 3113 3114 3115 3115 3116 3116 3117 3117 3118 3118 3118 3118 3119 3119 3119 3119 3119 3119 3119 3119 3119 3120 3119 3119 3119 3119 3119 3118 3118 3118 3118
3026 3029 3031 3033 3035 3037 3040 3040 3039 3040 3043 3044 3047 3050 3052 3054 3055 3056 3058 3060 3062 3064 3066 3068 3070 3072 3074 3077 3078 3080 3081 3082 3083 3085 3087 3089 3090 3091 3091 3091 3092 3092 3093 3094 3095 3096 3097 3097 3096 3096 3097 3099 3101 3102 3103 3104 3105 3106 3106 3107 3107 3108 3109 3110 3111 3111 3111 3111 3111 3112 3112 3112 3113 3113 3114 3114 3115 3115 3115 3116 3117 3117 3117 3118 3118 3118 3118 3118 3118 3118 3118 3118 3118 3118 3118 3118 3118 3118 3118 3118 3117 3117 3117
3023 3026 3028 3031 3033 3035 3038 3038 3038 3038 3040 3043 3047 3050 3052 3052 3052 3053 3056 3058 3060 3063 3064 3066 3068 3071 3073 3075 3077 3078 3079 3081 3082 3083 3085 3087 3088 3089 3089 3090 3090 3090 3091 3092 3093 3094 3095 3095 3095 3095 3095 3097 3099 3101 3102 3103 3103 3104 3105 3106 3106 3107 3108 3109 3109 3110 3110 3110 3110 3111 3111 3111 3112 3112 3113 3113 3114 3114 3114 3115 3116 3116 3116 3116 3117 3117 3117 3117 3117 3117 3117 3117 3117 3118 3118 3117 3117 3117 3116 3116 3116 3116 3116
3020 3023 3026 3028 3031 3033 3035 3036 3036 3037 3038 3042 3045 3048 3050 3049 3050 3051 3053 3056 3058 3061 3063 3065 3067 3070 3072 3074 3076 3077 3078 3079 3080 3082 3083 3084 3086 3087 3088 3088 3088 3089 3090 3091 3092 3093 3094 3094 3094 3094 3094 3096 3098 3100 3100 3101 3102 3103 3103 3104 3105 3106 3107 3107 3108 3108 3109 3109 3109 3109 3110 3110 3111 3111 3112 3112 3113 3113 3113 3114 3114 3115 3115 3115 3115 3115 3116 3116 3116 3116 3116 3116 3116 3116 3116 3116 3116 3115 3115 3115 3115 3114 3114
3017 3021 3024 3027 3029 3031 3033 3034 3035 3036 3037 3041 3044 3047 3048 3048 3048 3050 3052 3054 3057 3059 3061 3063 3066 3068 3071 3073 3074 3075 3077 3078 3079 3080 3081 3083 3084 3085 3086 3086 3087 3087 3088 3089 3091 3092 3092 3093 3093 3093 3093 3094 3097 3098 3099 3100 3100 3101 3102 3103 3104 3105 3106 3106 3107 3107 3107 3107 3108 3108 3109 3109 3110 3110 3111 3111 3112 3112 3113 3113 3113 3114 3114 3114 3114 3114 3114 3115 3115 3115 3115 3115 3115 3115 3115 3115 3114 3114 3114 3114 3113 3113 3113
3014 3018 3022 3024 3027 3029 3031 3033 3033 3035 3037 3040 3043 3045 3046 3047 3048 3049 3050 3053 3055 3057 3059 3061 3064 3067 3069 3071 3072 3073 3075 3076 3078 3079 3080 3081 3082 3083 3084 3085 3085 3086 3087 3088 3089 3090 3091 3091 3092 3092 3092 3093 3095 3097 3098 3099 3099 3100 3100 3101 3102 3103 3104 3105 3105 3106 3106 3106 3107 3107 3108 3108 3109 3109 3110 3110 3111 3111 3111 3112 3112 3113 3113 3113 3113 3113 3113 3113 3113 3113 3113 3114 3114 3113 3113 3113 3113 3113 3113 3112 3112 3112 3112
3011 3015 3019 3022 3025 3027 3029 3031 3033 3034 3036 3039 3042 3044 3044 3045 3046 3048 3048 3051 3053 3055 3057 3060 3063 3066 3068 3069 3070 3072 3073 3075 3076 3077 3078 3079 3080 3081 3082 3083 3084 3084 3085 3086 3088 3089 3090 3090 3090 3091 3091 3092 3093 3095 3097 3098 3098 3099 3099 3100 3101 3102 3102 3103 3104 3104 3105 3105 3105 3106 3106 3107 3108 3108 3108 3109 3109 3110 3110 3111 3111 3111 3112 3112 3112 3112 3112 3112 3112 3113 3113 3113 3112 3112 3112 3112 3112 3112 3111 3111 3111 3111 3110
3008 3013 3016 3020 3023 3025 3028 3030 3031 3033 3035 3038 3040 3041 3041 3042 3044 3046 3047 3049 3051 3054 3056 3058 3062 3064 3066 3068 3069 3071 3072 3073 3074 3076 3077 3078 3079 3080 3081 3082 3082 3083 3084 3085 3086 3088 3089 3089 3089 3090 3090 3091 3092 3093 3096 3097 3098 3098 3098 3098 3099 3100 3101 3101 3102 3103 3103 3104 3104 3105 3105 3106 3106 3107 3108 3108 3108 3109 3109 3109 3110 3110 3110 3111 3111 3111 3111 3111 3111 3111 3111 3111 3111 3111 3111 3111 3110 3110 3110 3110 3109 3109 3109
3006 3010 3014 3018 3021 3023 3026 3028 3030 3031 3033 3036 3038 3038 3038 3039 3042 3044 3046 3048 3050 3053 3055 3058 3061 3063 3065 3067 3068 3069 3071 3072 3073 3075 3076 3077 3078 3078 3079 3080 3081 3082 3083 3083 3085 3087 3088 3088 3088 3089 3089 3089 3090 3092 3094 3096 3097 3098 3097 3098 3098 3098 3099 3100 3101 3102 3103 3103 3103 3104 3104 3105 3106 3106 3107 3107 3107 3108 3108 3108 3108 3109 3109 3109 3109 3110 3110 3110 3110 3110 3110 3110 3110 3109 3109 3109 3109 3109 3109 3108 3108 3108 3108
3003 3007 3012 3015 3019 3022 3024 3027 3028 3030 3032 3033 3035 3035 3035 3037 3039 3042 3044 3046 3049 3052 3054 3057 3060 3062 3063 3065 3067 3068 3070 3071 3073 3073 3074 3075 3076 3077 3078 3079 3079 3080 3081 3082 3084 3085 3086 3087 3087 3088 3088 3088 3089 3090 3092 3095 3096 3097 3096 3096 3097 3097 3098 3099 3100 3101 3101 3102 3102 3103 3103 3104 3104 3105 3106 3106 3106 3107 3107 3107 3107 3108 3108 3108 3108 3108 3108 3108 3108 3108 3108 3108 3108 3108 3108 3108 3108 3108 3108 3107 3107 3107 3107
3000 3005 3009 3013 3017 3020 3022 3024 3027 3028 3030 3031 3032 3033 3033 3035 3037 3039 3042 3045 3048 3051 3054 3057 3059 3061 3063 3064 3065 3067 3068 3070 3071 3072 3073 3074 3075 3076 3077 3077 3078 3079 3080 3081 3083 3084 3085 3086 3086 3087 3087 3088 3088 3089 3091 3093 3095 3095 3095 3095 3096 3096 3097 3098 3099 3100 3100 3101 3101 3102 3102 3103 3103 3104 3104 3105 3105 3106 3106 3106 3106 3106 3107 3107 3107 3107 3107 3107 3107 3107 3107 3107 3107 3107 3107 3106 3106 3106 3106 3106 3106 3105 3105
2998 3002 3007 3011 3014 3018 3020 3022 3024 3026 3028 3029 3029 3030 3031 3033 3035 3038 3040 3043 3046 3049 3053 3056 3058 3060 3062 3063 3065 3066 3067 3068 3070 3071 3072 3073 3073 3074 3075 3076 3077 3078 3078 3080 3081 3083 3084 3084 3085 3085 3086 3086 3087 3088 3090 3092 3093 3094 3094 3094 3094 3095 3096 3097 3098 3099 3099 3100 3100 3101 3101 3102 3103 3103 3103 3103 3104 3104 3105 3105 3105 3105 3105 3105 3106 3106 3106 3106 3106 3106 3106 3106 3106 3105 3105 3105 3105 3105 3105 3104 3104 3104 3104
2995 3000 3004 3008 3012 3015 3018 3020 3022 3024 3026 3026 3027 3028 3029 3031 3033 3036 3039 3042 3045 3048 3052 3054 3057 3059 3061 3063 3064 3065 3066 3067 3068 3070 3071 3071 3072 3073 3074 3075 3075 3076 3077 3079 3080 3081 3082 3083 3083 3084 3084 3085 3086 3088 3089 3090 3091 3092 3093 3093 3093 3094 3094 3095 3097 3098 3098 3099 3099 3099 3100 3100 3101 3102 3102 3103 3103 3103 3103 3103 3104 3104 3104 3104 3104 3104 3105 3105 3105 3105 3105 3104 3104 3104 3104 3103 3103 3103 3103 3103 3103 3103 3103
2993 2998 3002 3006 3009 3013 3015 3018 3020 3022 3023 3024 3024 3025 3027 3029 3032 3035 3038 3040 3044 3047 3051 3053 3056 3058 3060 3061 3063 3064 3065 3066 3067 3068 3069 3070 3071 3072 3073 3073 3074 3075 3076 3078 3079 3080 3081 3082 3082 3083 3083 3084 3085 3087 3088 3089 3090 3091 3091 3092 3092 3093 3094 3095 3096 3097 3097 3098 3098 3098 3098 3099 3099 3100 3101 3101 3101 3102 3102 3102 3103 3103 3103 3103 3103 3103 3103 3103 3103 3103 3103 3103 3103 3103 3102 3102 3102 3102 3102 3102 3102 3101 3101
2991 2995 2999 3003 3007 3010 3013 3016 3018 3019 3021 3021 3022 3023 3024 3027 3031 3034 3036 3039 3043 3047 3050 3053 3055 3057 3058 3060 3061 3063 3064 3065 3066 3067 3068 3069 3070 3070 3071 3072 3073 3074 3075 3076 3078 3078 3079 3080 3081 3081 3082 3083 3085 3086 3087 3088 3088 3089 3090 3090 3091 3093 3093 3094 3095 3095 3096 3096 3097 3097 3098 3098 3098 3099 3099 3100 3100 3100 3101 3101 3101 3102 3102 3102 3102 3102 3102 3102 3102 3102 3102 3102 3102 3101 3101 3101 3101 3101 3100 3100 3100 3100 3100
2988 2993 2997 3001 3004 3007 3011 3014 3016 3017 3018 3019 3019 3020 3023 3026 3029 3032 3035 3038 3042 3046 3049 3051 3054 3056 3057 3059 3060 3061 3063 3064 3065 3066 3067 3068 3068 3069 3070 3071 3072 3073 3074 3075 3076 3077 3078 3079 3080 3081 3082 3083 3084 3085 3086 3086 3087 3087 3088 3089 3090 3092 3093 3094 3094 3094 3094 3095 3096 3096 3097 3097 3098 3098 3099 3099 3099 3099 3100 3100 3100 3100 3100 3101 3101 3101 3101 3101 3101 3101 3101 3100 3100 3100 3100 3099 3099 3099 3099 3099 3098 3098 3098
2987 2990 2994 2998 3002 3005 3009 3012 3014 3015 3016 3016 3017 3018 3021 3024 3027 3030 3033 3037 3041 3045 3048 3050 3052 3054 3055 3057 3058 3059 3061 3062 3063 3064 3065 3066 3067 3068 3069 3069 3070 3071 3073 3074 3075 3076 3077 3078 3078 3080 3081 3082 3083 3083 3084 3085 3085 3086 3087 3088 3090 3091 3092 3093 3093 3093 3093 3093 3094 3095 3096 3096 3097 3097 3098 3098 3098 3098 3099 3099 3099 3099 3099 3099 3099 3100 3100 3100 3100 3099 3099 3099 3099 3098 3098 3098 3098 3098 3098 3098 3097 3097 3096
2984 2988 2992 2996 2999 3003 3007 3009 3011 3013 3013 3013 3014 3016 3019 3022 3025 3028 3032 3036 3040 3044 3047 3049 3051 3052 3053 3054 3056 3057 3059 3060 3061 3063 3063 3065 3066 3067 3067 3068 3069 3070 3071 3072 3073 3074 3075 3076 3078 3079 3080 3081 3082 3082 3083 3084 3084 3085 3086 3087 3089 3090 3091 3092 3092 3092 3092 3092 3093 3094 3094 3095 3095 3096 3096 3097 3097 3097 3098 3098 3098 3098 3098 3098 3098 3098 3098 3098 3098 3098 3098 3098 3098 3097 3097 3097 3097 3096 3096 3096 3096 3095 3095
2983 2987 2990 2994 2998 3001 3005 3007 3009 3010 3011 3012 3013 3016 3019 3022 3025 3028 3032 3035 3039 3042 3045 3048 3049 3051 3052 3053 3054 3055 3057 3058 3060 3061 3062 3063 3064 3065 3066 3067 3068 3068 3069 3071 3072 3073 3074 3075 3077 3078 3079 3079 3080 3081 3082 3083 3083 3084 3085 3086 3088 3089 3089 3090 3090 3090 3091 3091 3092 3093 3093 3093 3094 3094 3094 3095 3095 3096 3096 3096 3096 3096 3097 3097 3097 3097 3097 3097 3097 3097 3096 3096 3096 3096 3096 3095 3095 3095 3095 3094 3094 3093 3093
2981 2985 2988 2992 2995 2999 3003 3005 3007 3008 3009 3010 3013 3016 3019 3023 3025 3028 3031 3034 3037 3040 3043 3046 3047 3049 3050 3052 3053 3054 3055 3057 3058 3059 3060 3061 3062 3063 3064 3065 3066 3067 3068 3069 3071 3072 3073 3074 3076 3077 3078 3078 3079 3080 3080 3081 3082 3083 3084 3085 3086 3087 3088 3088 3089 3089 3090 3090 3091 3091 3092 3092 3092 3093 3093 3093 3094 3094 3094 3095 3095 3095 3095 3095 3096 3096 3096 3096 3095 3095 3095 3095 3095 3094 3094 3094 3094 3093 3093 3093 3093 3092 3092
2980 2983 2987 2990 2994 2998 3001 3003 3005 3007 3008 3009 3012 3015 3019 3022 3024 3027 3030 3032 3035 3038 3041 3043 3045 3047 3048 3050 3052 3053 3054 3056 3057 3058 3059 3060 3061 3062 3063 3064 3065 3066 3067 3068 3069 3071 3072 3073 3074 3075 3076 3077 3078 3078 3080 3081 3082 3082 3083 3084 3085 3086 3086 3087 3087 3088 3088 3089 3090 3090 3090 3091 3091 3091 3091 3092 3093 3093 3093 3093 3093 3094 3094 3094 3094 3094 3094 3094 3094 3094 3094 3093 3093 3093 3093 3092 3092 3092 3092 3091 3091 3091 3090
2978 2982 2985 2988 2992 2996 3000 3001 3003 3005 3007 3008 3011 3014 3017 3020 3023 3025 3028 3031 3034 3037 3039 3042 3043 3045 3046 3048 3050 3052 3053 3054 3055 3057 3058 3059 3060 3061 3063 3063 3064 3065 3066 3067 3068 3070 3071 3072 3073 3074 3074 3075 3076 3078 3079 3080 3081 3081 3082 3083 3083 3084 3085 3085 3086 3086 3087 3088 3088 3089 3089 3089 3089 3090 3090 3091 3091 3092 3092 3092 3092 3093 3093 3093 3093 3093 3093 3093 3093 3093 3092 3092 3092 3092 3091 3091 3091 3090 3090 3090 3089 3089 3089
2978 2981 2984 2987 2991 2995 2998 3000 3002 3004 3006 3007 3009 3012 3015 3018 3021 3024 3027 3030 3033 3036 3038 3040 3042 3043 3044 3046 3048 3050 3051 3053 3054 3056 3057 3058 3059 3060 3061 3062 3063 3064 3065 3066 3067 3068 3069 3070 3071 3072 3073 3074 3075 3077 3078 3079 3080 3080 3081 3081 3082 3083 3083 3083 3084 3085 3086 3087 3087 3088 3088 3088 3088 3088 3089 3089 3090 3090 3091 3091 3091 3091 3091 3091 3092 3092 3092 3092 3092 3091 3091 3091 3090 3090 3090 3089 3089 3089 3089 3088 3088 3088 3087
2977 2979 2983 2986 2990 2993 2997 2998 3001 3003 3005 3006 3008 3010 3013 3016 3019 3022 3025 3028 3031 3034 3036 3038 3041 3042 3043 3044 3046 3048 3050 3051 3053 3054 3055 3056 3057 3058 3060 3061 3062 3063 3064 3065 3066 3067 3068 3069 3070 3071 3073 3073 3075 3076 3077 3078 3079 3079 3079 3080 3081 3081 3082 3082 3083 3083 3084 3085 3086 3086 3087 3087 3087 3087 3087 3088 3088 3089 3089 3090 3090 3090 3090 3090 3090 3090 3090 3090 3090 3090 3089 3089 3089 3089 3088 3088 3088 3088 3087 3087 3087 3086 3086
2977 2979 2981 2984 2988 2992 2995 2998 3000 3002 3004 3006 3008 3010 3013 3015 3018 3021 3024 3027 3029 3032 3034 3037 3038 3040 3042 3043 3045 3047 3049 3050 3052 3053 3054 3055 3056 3058 3059 3060 3061 3062 3063 3064 3064 3065 3066 3068 3070 3071 3072 3073 3073 3074 3076 3077 3078 3078 3078 3078 3079 3080 3081 3081 3082 3083 3083 3084 3084 3085 3085 3085 3085 3086 3086 3087 3087 3088 3088 3088 3088 3089 3089 3089 3089 3089 3089 3089 3089 3088 3088 3088 3088 3088 3087 3087 3087 3086 3086 3086 3085 3085 3085
2975 2978 2981 2983 2987 2991 2994 2997 2999 3001 3003 3005 3007 3009 3012 3015 3018 3020 3023 3026 3027 3029 3033 3035 3037 3039 3041 3043 3045 3047 3048 3049 3050 3052 3053 3054 3056 3057 3058 3059 3059 3060 3061 3062 3063 3064 3066 3068 3069 3070 3071 3071 3072 3073 3074 3075 3076 3077 3077 3077 3078 3078 3079 3080 3081 3082 3082 3083 3083 3083 3084 3084 3084 3084 3085 3085 3086 3086 3087 3087 3087 3088 3088 3088 3088 3088 3088 3088 3088 3088 3087 3086 3086 3086 3086 3085 3085 3085 3084 3084 3084 3083 3083
2975 2977 2980 2983 2986 2990 2993 2996 2998 3001 3003 3004 3006 3008 3012 3014 3017 3020 3022 3024 3026 3028 3031 3034 3036 3038 3040 3042 3044 3046 3047 3048 3050 3051 3052 3053 3055 3056 3057 3057 3058 3059 3060 3061 3063 3064 3065 3067 3068 3068 3069 3070 3071 3072 3073 3074 3074 3075 3075 3076 3076 3077 3078 3078 3079 3080 3081 3082 3082 3082 3082 3083 3083 3083 3084 3084 3084 3085 3085 3085 3086 3086 3086 3086 3086 3087 3087 3088 3087 3087 3086 3085 3085 3084 3084 3084 3084 3083 3083 3083 3083 3082 3082
2974 2977 2979 2982 2985 2989 2992 2995 2998 3000 3002 3003 3006 3008 3011 3013 3016 3018 3021 3024 3026 3028 3031 3033 3035 3037 3039 3041 3043 3045 3046 3048 3049 3050 3051 3053 3054 3055 3055 3056 3058 3059 3059 3060 3061 3062 3063 3065 3066 3067 3068 3069 3070 3071 3072 3073 3073 3073 3074 3074 3075 3076 3076 3077 3077 3078 3079 3080 3081 3081 3081 3082 3082 3082 3083 3083 3083 3083 3084 3084 3084 3084 3085 3085 3085 3085 3085 3086 3086 3086 3085 3084 3084 3083 3083 3083 3082 3082 3082 3082 3081 3081 3080
2973 2976 2979 2982 2984 2988 2991 2994 2997 2999 3001 3003 3005 3007 3009 3012 3015 3018 3021 3024 3026 3028 3030 3032 3034 3036 3038 3040 3042 3043 3045 3047 3048 3049 3050 3052 3053 3053 3054 3055 3056 3057 3058 3059 3060 3061 3062 3063 3065 3066 3067 3068 3068 3069 3070 3071 3072 3072 3072 3073 3073 3074 3074 3075 3076 3077 3078 3079 3079 3080 3080 3081 3081 3081 3081 3082 3082 3082 3082 3083 3083 3083 3083 3083 3083 3083 3083 3084 3084 3084 3084 3084 3083 3082 3081 3081 3081 3081 3080 3080 3080 3079 3079
2972 2975 2978 2981 2984 2987 2990 2993 2996 2998 3000 3002 3004 3007 3009 3012 3015 3018 3021 3022 3024 3026 3029 3031 3033 3036 3038 3040 3041 3043 3044 3046 3047 3048 3049 3050 3052 3053 3053 3054 3055 3056 3057 3058 3059 3060 3061 3063 3064 3065 3065 3066 3067 3068 3069 3070 3070 3071 3071 3071 3072 3073 3073 3073 3074 3075 3076 3077 3078 3078 3079 3080 3080 3080 3080 3080 3080 3081 3081 3081 3081 3081 3081 3082 3082 3082 3082 3082 3082 3083 3083 3083 3082 3081 3080 3079 3079 3079 3079 3079 3078 3078 3078
2972 2974 2978 2980 2983 2987 2990 2993 2995 2998 2999 3002 3004 3007 3009 3012 3015 3018 3020 3020 3022 3025 3028 3031 3033 3035 3037 3039 3041 3042 3043 3045 3046 3047 3048 3049 3051 3052 3053 3053 3054 3055 3056 3057 3058 3058 3060 3061 3063 3063 3064 3065 3066 3067 3068 3068 3069 3069 3070 3070 3071 3071 3072 3072 3073 3074 3075 3076 3076 3077 3078 3078 3079 3079 3079 3079 3079 3079 3079 3080 3080 3080 3080 3080 3080 3080 3080 3080 3080 3081 3082 3082 3081 3080 3079 3078 3078 3078 3078 3077 3077 3077 3076